Location: Whitehorse
(60.7170°N, 135.0500°W)
Time: 11:12:15
(UTC-08:00)

SL-16 R/B - Visible Passes

Search period start: 19 February 2017 00:00
Search period end: 01 March 2017 00:00
Orbit: 842 x 848 km, 71.0° (Epoch: 18 February)

Date Brightness Start Highest point End Pass type
(mag) Time Alt. Az. Time Alt. Az. Time Alt. Az.
19 Feb 3.0 20:08:46 10° NW 20:14:05 38° NNE 20:16:42 25° ENE visible
19 Feb 2.2 21:53:08 10° NW 21:58:35 81° NNW 21:58:35 81° NNW visible
19 Feb 4.1 23:37:41 10° NW 23:40:29 23° WNW 23:40:29 23° WNW visible
20 Feb 3.0 19:54:42 10° NW 20:00:00 38° NNE 20:03:09 22° ENE visible
20 Feb 2.0 21:39:05 10° NW 21:44:49 85° NE 21:45:02 82° ESE visible
20 Feb 3.9 23:23:37 10° NW 23:26:56 26° W 23:26:56 26° W visible
21 Feb 3.0 19:40:38 10° NW 19:45:56 38° NNE 19:49:36 18° E visible
21 Feb 2.0 21:25:01 10° NW 21:30:45 84° NE 21:31:30 68° ESE visible
21 Feb 3.7 23:09:32 10° NW 23:13:24 29° W 23:13:24 29° W visible
22 Feb 3.0 19:26:33 10° NW 19:31:51 37° NNE 19:36:07 15° E visible
22 Feb 2.1 21:10:57 10° NW 21:16:41 83° NE 21:18:01 55° SE visible
22 Feb 3.6 22:55:27 10° NW 22:59:54 31° W 22:59:54 31° W visible
23 Feb 3.0 19:12:29 10° NW 19:17:46 37° NNE 19:22:39 12° E visible
23 Feb 2.1 20:56:53 10° NW 21:02:38 81° NE 21:04:33 44° SE visible
23 Feb 3.5 22:41:23 10° NW 22:46:20 32° WSW 22:46:27 32° WSW visible
24 Feb 3.0 18:58:25 10° NW 19:03:41 37° NNE 19:08:57 10° E visible
24 Feb 2.1 20:42:50 10° NW 20:48:34 80° NE 20:51:08 34° SE visible
24 Feb 3.4 22:27:17 10° NW 22:32:18 32° WSW 22:33:02 31° SW visible
25 Feb 2.2 20:28:46 10° NW 20:34:30 79° NE 20:37:46 27° SE visible
25 Feb 3.5 22:13:13 10° NW 22:18:16 33° WSW 22:19:40 29° SW visible
26 Feb 2.2 20:14:42 10° NW 20:20:26 77° NE 20:24:27 20° SE visible
26 Feb 3.5 21:59:08 10° NW 22:04:13 34° WSW 22:06:22 26° SSW visible
27 Feb 2.2 20:00:38 10° NW 20:06:22 76° NE 20:11:12 15° SE visible
27 Feb 3.5 21:45:04 10° NW 21:50:10 35° WSW 21:53:07 21° SSW visible
28 Feb 2.2 19:46:34 10° NW 19:52:18 75° NE 19:58:00 10° SE visible
28 Feb 3.5 21:31:00 10° NW 21:36:07 35° WSW 21:39:57 16° SSW visible
